Le nostre stazioni meteo in Italia

Pubblicità
Il mio iltempo24.it
Catania/Sigonella, Italia (16459): Temperatura & dewpoint: 31.05.2020 08:00:00 - 06.06.2020 08:00:00 (CEST)Catania/Sigonella, Italia (16459): velocità del vento: 31.05.2020 08:00:00 - 06.06.2020 08:00:00 (CEST)Catania/Sigonella, Italia (16459): direzione del vento: 31.05.2020 08:00:00 - 06.06.2020 08:00:00 (CEST)Catania/Sigonella, Italia (16459): reduced air pressure: 31.05.2020 08:00:00 - 06.06.2020 08:00:00 (CEST)Catania/Sigonella, Italia (16459): visibility: 31.05.2020 08:00:00 - 06.06.2020 08:00:00 (CEST)
Data & Tempo tt [°C] td [°C] ff [km/h] ff [kn] dd ppp [hPa] vv [km]
06.06.2020 08:00:00 19,0 14,7 29 16 O 1008,4 16
06.06.2020 07:00:00 17,0 14,0 31 17 O - 10
06.06.2020 06:00:00 15,0 15,0 21 11 OSO - 10
06.06.2020 05:00:00 15,0 15,0 22 12 OSO 1007,7 12
06.06.2020 04:00:00 16,0 15,0 16 9 O - 10
06.06.2020 03:00:00 15,0 15,0 22 12 OSO - 10
06.06.2020 02:00:00 15,6 15,6 21 11 OSO 1007,4 12
06.06.2020 01:00:00 16,0 16,0 24 13 OSO - 10
06.06.2020 00:00:00 16,0 16,0 26 14 OSO - 10
05.06.2020 23:00:00 16,6 16,3 26 14 O 1006,8 12
05.06.2020 22:00:00 17,0 17,0 16 9 OSO - 10
05.06.2020 21:00:00 18,0 16,0 28 15 O - 10
05.06.2020 20:00:00 19,4 14,4 28 15 ONO 1004,3 10
05.06.2020 19:00:00 20,0 15,0 28 15 ONO - 10
05.06.2020 18:00:00 20,0 19,0 16 9 ONO - 10
05.06.2020 17:00:00 17,0 17,0 13 7 OSO 1003,8 8
05.06.2020 16:00:00 16,0 16,0 18 10 NNO - 5
05.06.2020 15:00:00 19,0 19,0 21 11 ENE - 8
05.06.2020 14:00:00 19,0 18,2 29 16 E 1003,9 7
05.06.2020 13:00:00 19,0 19,0 22 12 ENE - 7
05.06.2020 12:00:00 19,0 18,0 31 17 E - 7
05.06.2020 11:00:00 19,0 18,5 24 13 E 1008,2 7
05.06.2020 10:00:00 19,0 18,0 21 11 E - 7
05.06.2020 09:00:00 19,0 19,0 31 17 E - 8
05.06.2020 08:00:00 18,0 18,0 18 10 ENE 1008,7 8
05.06.2020 07:00:00 18,0 18,0 18 10 ENE - 8
05.06.2020 06:00:00 18,0 18,0 18 10 E - 10
05.06.2020 05:00:00 18,0 18,0 16 9 E 1009,6 12
05.06.2020 04:00:00 18,0 18,0 15 8 ENE - 10
05.06.2020 03:00:00 18,0 18,0 9 5 ENE - 10
05.06.2020 02:00:00 18,0 18,0 5 3 NNE 1011,3 15
05.06.2020 01:00:00 18,0 18,0 15 8 NE - 10
05.06.2020 00:00:00 18,0 18,0 15 8 NE - 10
04.06.2020 23:00:00 18,8 18,8 16 9 ENE 1010,4 15
04.06.2020 22:00:00 19,0 17,0 13 7 NE - 10
04.06.2020 21:00:00 21,0 16,0 9 5 E - 10
04.06.2020 20:00:00 23,8 16,4 13 7 S 1009,3 16
04.06.2020 19:00:00 25,0 14,0 18 10 SSE - 10
04.06.2020 18:00:00 26,0 13,0 16 9 S - 10
04.06.2020 17:00:00 27,2 12,8 11 6 SSO 1009,5 18
04.06.2020 16:00:00 - - - - - - -
04.06.2020 15:00:00 26,0 14,0 15 8 E - 10
04.06.2020 14:00:00 26,4 13,9 5 3 SE 1010,8 18
04.06.2020 13:00:00 25,0 14,0 11 6 SE - 10
04.06.2020 12:00:00 25,0 16,0 5 3 - - 10
04.06.2020 11:00:00 24,0 14,4 15 8 O 1011,4 16
04.06.2020 10:00:00 22,0 13,0 11 6 OSO - 10
04.06.2020 09:00:00 19,0 16,0 11 6 O - 10
04.06.2020 08:00:00 17,2 15,4 13 7 O 1012,4 10
04.06.2020 07:00:00 14,0 14,0 5 3 O - 10
04.06.2020 06:00:00 11,0 11,0 9 5 O - 10
04.06.2020 05:00:00 10,2 10,2 5 3 OSO 1011,9 10
04.06.2020 04:00:00 14,0 14,0 8 4 O - 10
04.06.2020 03:00:00 15,0 15,0 8 4 O - 10
04.06.2020 02:00:00 15,4 15,4 13 7 O 1012,8 10
04.06.2020 01:00:00 16,0 16,0 5 3 ONO - 10
04.06.2020 00:00:00 16,0 14,0 8 4 O - 10
03.06.2020 23:00:00 18,2 15,1 15 8 O 1012,6 10
03.06.2020 22:00:00 18,0 14,0 5 3 O - 10
03.06.2020 21:00:00 20,0 14,0 4 2 N - 10
03.06.2020 20:00:00 21,0 12,2 13 7 NE 1012,1 15
03.06.2020 19:00:00 22,0 13,0 16 9 ENE - 10
03.06.2020 18:00:00 23,0 14,0 13 7 S - 10
03.06.2020 17:00:00 23,2 10,3 22 12 SSO 1011,8 10
03.06.2020 16:00:00 23,0 10,0 28 15 E - 10
03.06.2020 15:00:00 23,0 11,0 28 15 E - 10
03.06.2020 14:00:00 24,0 12,0 28 15 E 1012,2 15
03.06.2020 13:00:00 24,0 13,0 26 14 E - 10
03.06.2020 12:00:00 24,0 12,0 18 10 ENE - 10
03.06.2020 11:00:00 23,0 12,6 5 3 OSO 1012,5 15
03.06.2020 10:00:00 21,0 13,0 5 3 O - 10
03.06.2020 09:00:00 20,0 16,0 8 4 O - 10
03.06.2020 08:00:00 18,0 15,2 11 6 ONO 1012,6 10
03.06.2020 07:00:00 16,0 14,0 11 6 ONO - 10
03.06.2020 06:00:00 16,0 16,0 11 6 ONO - 10
03.06.2020 05:00:00 15,4 15,4 8 4 O 1012,5 10
03.06.2020 04:00:00 15,0 15,0 9 5 O - 10
03.06.2020 03:00:00 16,0 15,0 9 5 O - 10
03.06.2020 02:00:00 17,4 17,1 5 3 O 1013,4 10
03.06.2020 01:00:00 18,0 17,0 9 5 O - 10
03.06.2020 00:00:00 18,0 17,0 9 5 O - 10
02.06.2020 23:00:00 18,8 16,0 4 2 O 1013,5 10
02.06.2020 22:00:00 19,0 15,0 9 5 NNE - 10
02.06.2020 21:00:00 19,0 15,0 16 9 ENE - 10
02.06.2020 20:00:00 19,5 12,8 21 11 ENE 1013,1 10
02.06.2020 19:00:00 20,0 13,0 26 14 N - 10
02.06.2020 18:00:00 21,0 13,0 34 18 E - 10
02.06.2020 17:00:00 20,4 10,8 35 19 E 1013,4 10
02.06.2020 16:00:00 21,0 11,0 35 19 E - 10
02.06.2020 15:00:00 22,0 12,0 31 17 E - 10
02.06.2020 14:00:00 23,2 10,6 24 13 E 1014,3 10
02.06.2020 13:00:00 24,0 11,0 18 10 ESE - 10
02.06.2020 12:00:00 23,0 8,0 8 4 ESE - 10
02.06.2020 11:00:00 22,2 9,0 11 6 SSO 1015,3 10
02.06.2020 10:00:00 20,0 12,0 9 5 ONO - 10
02.06.2020 09:00:00 19,0 15,0 11 6 OSO - 10
02.06.2020 08:00:00 16,0 14,4 8 4 OSO 1015,5 10
02.06.2020 07:00:00 13,0 13,0 15 8 O - 10
02.06.2020 06:00:00 13,0 13,0 8 4 NO - 10
02.06.2020 05:00:00 13,0 13,0 5 3 NO 1015,3 10
02.06.2020 04:00:00 14,0 14,0 11 6 O - 10
02.06.2020 03:00:00 15,0 15,0 8 4 ONO - 10
02.06.2020 02:00:00 15,0 14,8 9 5 O 1014,5 10
02.06.2020 01:00:00 15,0 15,0 8 4 ONO - 10
02.06.2020 00:00:00 16,0 16,0 8 4 O - 10
01.06.2020 23:00:00 16,4 16,4 11 6 NE 1016,1 10
01.06.2020 22:00:00 17,0 17,0 5 3 NE - 10
01.06.2020 21:00:00 17,0 17,0 11 6 E - 10
01.06.2020 20:00:00 18,4 18,4 13 7 E 1014,6 10
01.06.2020 19:00:00 19,0 16,0 22 12 E - 10
01.06.2020 18:00:00 18,0 16,0 24 13 E - 10
01.06.2020 17:00:00 20,2 16,8 28 15 E 1015,0 10
01.06.2020 16:00:00 20,0 16,0 26 14 E - 10
01.06.2020 15:00:00 21,0 16,0 28 15 E - 10
01.06.2020 14:00:00 22,4 15,5 28 15 E 1015,4 10
01.06.2020 13:00:00 23,0 14,0 22 12 E - 10
01.06.2020 12:00:00 22,0 16,0 11 6 E - 10
01.06.2020 11:00:00 22,0 13,9 8 4 NE 1015,4 10
01.06.2020 10:00:00 20,0 14,0 9 5 NE - 10
01.06.2020 09:00:00 18,0 15,0 8 4 O - 10
01.06.2020 08:00:00 15,8 14,2 8 4 ONO 1015,6 15
01.06.2020 07:00:00 13,0 13,0 9 5 O - 10
01.06.2020 06:00:00 13,0 13,0 9 5 O - 10
01.06.2020 05:00:00 13,6 13,3 9 5 ONO 1015,2 12
01.06.2020 04:00:00 14,0 14,0 8 4 NO - 10
01.06.2020 03:00:00 15,0 15,0 5 3 NO - 10
01.06.2020 02:00:00 16,0 16,0 5 3 ONO 1015,5 11
01.06.2020 01:00:00 15,0 15,0 5 3 SO - 10
01.06.2020 00:00:00 16,0 16,0 2 1 E - 10
31.05.2020 23:00:00 17,2 17,2 5 3 E 1015,4 12
31.05.2020 22:00:00 17,0 17,0 11 6 NE - 10
31.05.2020 21:00:00 17,0 17,0 15 8 E - 10
31.05.2020 20:00:00 18,0 18,0 15 8 E 1014,3 10
31.05.2020 19:00:00 18,0 18,0 18 10 E - 10
31.05.2020 18:00:00 19,0 19,0 22 12 ENE - 10
31.05.2020 17:00:00 20,0 18,0 24 13 E 1014,4 10
31.05.2020 16:00:00 20,0 18,0 26 14 E - 10
31.05.2020 15:00:00 20,0 16,0 26 14 ENE - 10
31.05.2020 14:00:00 20,2 16,2 22 12 ENE 1014,4 10
31.05.2020 13:00:00 20,0 14,0 26 14 ENE - 10
31.05.2020 12:00:00 22,0 13,0 24 13 E - 10
31.05.2020 11:00:00 22,4 13,2 5 3 ESE 1014,4 12
31.05.2020 10:00:00 20,0 16,0 4 2 N - 10
31.05.2020 09:00:00 18,0 17,0 9 5 O - 10
31.05.2020 08:00:00 16,0 16,0 5 3 ONO 1014,8 12

tt = Temperatura
td = dewpoint
ff = velocità del vento
dd = direzione del vento
ppp = reduced air pressure
vv = visibility

Stazioni seguenti

WeatherPro
AMSI
MeteoEarth